sat.trackr.live / text

‹ back to catalog

JILIN-1 GAOFEN 03D15

NORAD 51839 · 2022-019R

PAYLOAD ACTIVE UNKNOWN

§ Identity

Operator
Country
PRC
Launch date
2022-02-27
Launch site
WSC
Launch vehicle
Mass (kg)
RCS (m²)

External: N2YO · Heavens-Above · Gunter

§ Orbital elements

Epoch: 2026-05-25T05:50:20.216256Z

Period
89.99 min
Inclination
97.3643°
Eccentricity
0.0007535
Mean motion
16.00190049 rev/d
Perigee alt
268.9 km
Apogee alt
278.9 km
Semi-major
6,652.0 km
B*
1.0648e-3
RAAN
241.8927°
Arg perigee
233.0313°
Mean anomaly
127.0276°
Rev number
23,646

§ Raw data

JILIN-1 GAOFEN 03D151 51839U 22019R   26145.24328954  .00545676  13327-3  10648-2 0  99982 51839  97.3643 241.8927 0007535 233.0313 127.0276 16.00190049236464

JSON: /api/v1/satellites/51839 · /tle

For live sub-satellite position, see the globe view (requires WebGL).

§ Visibility from observer

Set your observer location to see the next 7 days of passes ≥ 10°. The values pass through the URL so the page stays shareable.

No JS? Fill the form by hand. The geolocation button needs JavaScript.

§ Radio — SatNOGS DB

ModeDescriptionDownlinkUplink
FM Jillin Mysterious Pip 1.616 GHz

1 transmitter · refreshed weekly from db.satnogs.org